Preview of NWS' New Version of Forecast
This preview is not operational and should not be used for support decisions.

Regional Weather Roundup (RWR)

Issued by National Weather Service (NWS)

                            
000
ASUS45 KCYS 211510
RWRWY 

WYOMING REGIONAL WEATHER ROUNDUP
NATIONAL WEATHER SERVICE CHEYENNE WY
900 AM MDT WED AUG 21 2019

NOTE:  "FAIR" INDICATES FEW OR NO CLOUDS BELOW 12,000 FEET
WITH NO SIGNIFICANT WEATHER AND/OR OBSTRUCTIONS TO VISIBILITY.

WYZ001-211600-
...YELLOWSTONE NATIONAL PARK...
  
CITY           SKY/WX    TMP DP  RH WIND       PRES   REMARKS
LK YELLOWSTONE   N/A     56  47  71 CALM      30.37                   
W YELLOWSTONE  NOT AVBL                                               

$$
WYZ002>013-054>058-071-098>099-211600-
...NORTHERN WYOMING...
  
CITY           SKY/WX    TMP DP  RH WIND       PRES   REMARKS
JACKSON        SUNNY     57  40  52 CALM      30.28                   
CODY           SUNNY     69  51  52 CALM      30.20R                  
GREYBULL       SUNNY     70  50  49 CALM      30.11S                  
WORLAND        SUNNY     71  53  52 CALM      30.12F                  
SHERIDAN       SUNNY     70  54  56 E3        30.13F                  
BUFFALO        SUNNY     70  54  56 NW7       30.19F                  
GILLETTE       SUNNY     69  56  62 SE21G35   30.17S                  
HULETT         FAIR      66  55  68 CALM      30.20F                  
NEWCASTLE      FAIR      68  43  40 SE18G24   30.19S                  

$$
WYZ014>020-022>026-101>103-211600-
...CENTRAL WYOMING...
  
CITY           SKY/WX    TMP DP  RH WIND       PRES   REMARKS
BIG PINEY      SUNNY     58  29  33 CALM      30.30S                  
PINEDALE       SUNNY     63  36  36 CALM      30.31R                  
DUBOIS         FAIR      59  37  44 NW8       30.31F                  
LANDER         SUNNY     70  54  56 CALM      30.19F                  
RIVERTON       SUNNY     72  51  47 NE7       30.20S                  
CASPER         MOSUNNY   66  52  60 E9        30.20S                  
DOUGLAS        SUNNY     69  56  62 SE17      30.23R                  

$$
WYZ021-027>030-104>119-211600-
...SOUTHERN WYOMING...
  
CITY           SKY/WX    TMP DP  RH WIND       PRES   REMARKS
EVANSTON       SUNNY     64  23  21 S3        30.28R                  
KEMMERER       SUNNY     64  27  24 N8        30.30R                  
FORT BRIDGER   NOT AVBL                                               
ROCK SPRINGS   SUNNY     66  49  54 E6        30.27S                  
DIXON          FAIR      60  27  28 SE7       30.29S                  
RAWLINS        MOSUNNY   61  49  64 CALM      30.28S                  
SARATOGA       FAIR      61  41  48 CALM      30.30S                  
LARAMIE        SUNNY     65  50  58 SE18      30.30R                  
CHEYENNE       MOSUNNY   66  51  58 S9        30.28S                  
TORRINGTON     MOSUNNY   67  61  81 N5        30.21R                  
PINE BLUFFS    PTSUNNY   63  57  82 SW5       30.26S                  

$$